Location: Bakov nad Jizerou
(50.4784°N, 14.9394°E)
Time: 15:02:52
(UTC+00:00)

Cosmos 1536 Rocket - Pass Details

Date: 21 October 2021
Orbit: 605 x 632 km, 82.5° (Epoch: 05 December)

Event Time Altitude Azimuth Distance (km) Brightness Sun altitude
Rises 16:57:15 0° 338° (NNW) 2,879 7.2 -10.4°
Reaches altitude 10° 16:59:53 10° 323° (NW) 1,967 6.6 -10.8°
Maximum altitude 17:03:09 21° 274° (W) 1,372 6.5 -11.3°
Drops below altitude 10° 17:06:24 10° 225° (SW) 1,953 6.8 -11.8°
Sets 17:09:00 0° 209° (SSW) 2,851 7.4 -12.3°
